Location: Newark
(34.6283°N, 36.0776°E)
Time: 04:13:47
(UTC+00:00)

A-11 Canister half - Pass Details

Date: 24 September 2019
Orbit: 1527 x 1682 km, 47.3° (Epoch: 18 October)

Event Time Altitude Azimuth Distance (km) Brightness Sun altitude
Rises 07:11:03 0° 304° (NW) 4,793 11.1 42.6°
Reaches altitude 10° 07:14:07 10° 303° (WNW) 3,827 10.7 43.1°
Maximum altitude 07:23:52 75° 221° (SW) 1,693 10.1 44.5°
Drops below altitude 10° 07:33:54 10° 138° (SE) 3,920 12.2 46.0°
Sets 07:37:04 0° 136° (SE) 4,915 12.4 46.4°
